Hourly Data Report for October 02, 2017

All times are specified in Local Standard Time (LST). Add 1 hour to adjust for Daylight Saving Time where and when it is observed.

POINT ATKINSON
BRITISH COLUMBIA

49°19'49.300" N
123°15'53.000" W
14.00 m
1106200
71037
WSB

Download Data

Hourly Data (October 2017)
Hourly Data Report for October 2, 2017
Temp Definition
°C
Dew Point Temp Definition
°C
Rel Hum Definition
%
Wind Dir Definition
10's deg

Wind Spd Definition
km/h
Visibility Definition
km
Stn Press Definition
kPa
Hmdx Definition


Wind Chill Definition


Weather Definition


TIME
00:00 11.1 7.9 81 8 6   101.80     LegendNANA
01:00 11.1 8.2 82 7 4   101.80     LegendNANA
02:00 11.2 8.0 80 31 3   101.82     LegendNANA
03:00 11.1 8.2 83 7 3   101.83     LegendNANA
04:00 10.8 8.0 83 32 5   101.86     LegendNANA
05:00 10.8 7.2 78 31 4   101.87     LegendNANA
06:00 10.6 6.2 74 33 2   101.88     LegendNANA
07:00 11.5 7.2 75 32 9   101.88     LegendNANA
08:00 10.5 7.5 81 8 5   101.90     LegendNANA
09:00 11.8 7.5 75 11 7   101.91     LegendNANA
10:00 12.4 7.8 74 9 12   101.93     LegendNANA
11:00 14.0 7.7 66 9 10   101.95     LegendNANA
12:00 13.3 8.5 73 27 19   101.96     LegendNANA
13:00 13.6 9.1 74 27 18   101.96     LegendNANA
14:00 14.1 9.6 75 27 18   101.96     LegendNANA
15:00 14.9 8.7 67 27 14   101.95     LegendNANA
16:00 15.5 8.6 63 28 18   101.94     LegendNANA
17:00 15.8 6.6 54 8 5   101.96     LegendNANA
18:00 15.1 7.6 61 8 9   102.00     LegendNANA
19:00 14.9 6.2 56 7 3   102.07     LegendNANA
20:00 13.2 5.6 60 8 6   102.13     LegendNANA
21:00 13.1 4.1 54 10 5   102.19     LegendNANA
22:00 12.9 4.5 57 21 2   102.24     LegendNANA
23:00 12.3 4.5 59 8 7   102.26     LegendNANA

Notes on Data Quality.

Legend

  • E = Estimated
  • M = Missing
  • NA = Not Available
  • ‡ = Partner data that is not subject to review by the National Climate Archives
Date modified: